Погода Радужный

Погода Радужный : погода сейчас, прогноз погоды и архив. Всё, что Вы хотите узнать о погоде Радужный!

Поиск расширенной информации на нашем сайте:

Другие новости

Новости СМИ2

Главная страница сайта

Новости сайта

03.07.2017

Напоминаем, что на нашем специализированном сайте Метеоцентр.Азия вы можете получить высокодетализированные автоматические прогнозы погоды по пунктам России, СНГ и мира в авиационном формате (включающие направление и скорость ветра, видимость, явления погоды, количество и форму облачности, нижнюю и верхнюю границу облачности).

Рекомендуем: Смотрите подробности stanley finance отзывы клиентов у нас на сайте.

Погода Радужный - сегодня

Время (UTC), дата Ветер
(°,м/с) 
Видим.   Явления Облачность Т
(°С)
Тd
(°С)
f(%) Тe
(°С)
Pmin
(гПа)
dP
(гПа)
Po
(мм)
O2
(г/м3)
Тmin Tmax R s Состояние
почвы
18 15.04.18 290 (З) 10 км    3/0 верхняя 
[Ci fib]
-8.7 -11.5 80 -12  998.7  0.7  742  310           
21 15.04.18 290 (З) 10 км    ясно 
-12.1 -13.4 90 -14  999.2  0.3  743  314           
00 16.04.18 290 (З) 10 км    4/0 средняя 
[Ac trans]
-13.4 -15.1 87 -13  999.8  0.6  743  316           
03 16.04.18 330 (СЗ) 10 км    3/0 верхняя 
[Ci fib]
-8.5 -12.3 74 -8  1000.5  0.9  744  310  -13.8      50  равномерный
мокрый или
старый снег
100% 
06 16.04.18 300 (СЗ) 10 км    3/0 верхняя 
[Ci fib]
-6.3 -14.4 53 -9  1000.9  0.4  744  308           
09 16.04.18 310 (СЗ) 10 км    6/0 средняя, верхняя 
[Ac trans|Ci fib]
-5.1 -15 46 -7  1001.7  0.9  745  307           
12 16.04.18 320 (СЗ) 10 км    4/0 верхняя 
[Ci fib]
-6.7 -14.2 55 -9  1003  1.2  746  309           
15 16.04.18 010 (С) 10 км    4/0 средняя, верхняя 
[Ac trans|Ci fib]
-11.7 -17.1 64 -14  1004.4  1.1  746  316    -4.5       
18 16.04.18 320 (СЗ) 10 км    ясно 
-16.3 -19.3 78 -19  1005  0.5  747  322           
00 17.04.18 330 (СЗ) 4000 м  слаб. снег  10/0 средняя 
[As op]
-15.7 -18.4 80 -18  1006.6  1.1  748  321           
03 17.04.18 320 (СЗ) 10 км  {снег}  6/0 верхняя 
[Ci fib]
-15.9 -20.4 68 -20  1008.6  750  322  -16.7    0.3  50  равномерный
сухой снег
100% 
06 17.04.18 310 (СЗ) 10 км  {снег}  3/0 верхняя 
[Ci fib]
-12.7 -19 59 -17  1010.6  2.1  751  319           
09 17.04.18 300 (СЗ) 10 км    4/3 600 м верхняя 
[Cu hum|Ci fib]
-11.2 -18 57 -15  1012.5  753  318           
12 17.04.18 320 (СЗ) 10 км    3/0 средняя, верхняя 
[Ac trans|Ci fib]
-11.5 -19 54 -15  1014.7  2.1  754  319           
18 17.04.18 310 (СЗ) 10 км    4/0 верхняя 
[Ci fib]
-17.8 -20.9 77 -20  1017.4  756  327           
21 17.04.18 290 (З) 10 км    8/0 средняя, верхняя 
[Ac trans|Ci fib]
-19.4 -22.1 79 -22  1018.5  1.1  757  330           
00 18.04.18 270 (З) 10 км    3/0 верхняя 
[Ci fib]
-20.9 -23.3 81 -21  1019.5  758  332           
03 18.04.18 300 (СЗ) 10 км    3/0 верхняя 
[Ci fib]
-15.3 -20.3 66 -18  1021.2  1.8  759  326  -21.4      50  равномерный
сухой снег
100% 
06 18.04.18 280 (З) 10 км    4/0 верхняя 
[Ci fib]
-11.3 -18.4 56 -14  1021.2  0.2  759  321           
09 18.04.18 280 (З) 10 км    3/0 верхняя 
[Ci fib]
-8.6 -18.8 44 -11  1020.7  -0.4  759  317           
12 18.04.18 250 (З) 10 км    3/0 верхняя 
[Ci fib]
-7.2 -20.2 35 -11  1018.9  -1.8  757  315           
18 18.04.18 180 (Ю) 10 км    10/0 средняя, верхняя 
[Ac trans|Ci fib]
-10.7 -18.6 52 -14  1015.1  -2.3  755  318           
21 18.04.18 180 (Ю) 10 км    10/0 средняя, верхняя 
[Ac trans|Ci fib]
-9.6 -16.5 57 -14               
00 19.04.18 190 (Ю) 10 км    10/0 средняя 
[As trans]
-7.4 -14.3 58 -12  1008.3  -3.3  750  312           
03 19.04.18 210 (ЮЗ) 5{11}  4000 м  слаб. снег  10/6 180 м средняя 
[Frnb|As op]
-5.4 -7.9 83 -9  1006.3  -1.9  748  308  -11.5    0.0  50  равномерный
сухой снег
100% 
Время (UTC), дата Ветер
(°,м/с) 
Видим.   Явления Облачность Т
(°С)
Тd
(°С)
f(%) Тe
(°С)
Pmin
(гПа)
dP
(гПа)
Po
(мм)
O2
(г/м3)
Тmin Tmax R s Состояние
почвы

Для получения пояснительной информации подведите курсор к названию столбца.

ПОГОДА Радужный - архив

Всё, что Вы хотите узнать о погоде Радужный - удобно и подробно!

Выберите нужную дату (начиная с 1 января 2015* года) и нажмите кнопку "Найти".
Будут отображены архивные сводки погоды по пункту Радужный, начиная с указанной даты.


Отображать данные в формате CSV (для использования в таблицах Excel)


Внимание! Наш архив погоды предназначен исключительно для личного некоммерческого использования в познавательных целях. Если Вам необходимы официальные справки о состоянии погоды (для производственных, юридических, коммерческих и т.п. целей), обращайтесь в органы Росгидромета.

*Примечание: данная дата относится к архиву по метеостанциям СССР (Россия, СНГ, Балтия).
Архив по метеостанциям Зарубежной Европы и Азии (кроме Китая) хранится 10 дней, по другим регионам земного шара (Китай, Африка, Америка, Австралия, Океания) - 1 день.

Радужный - район местоположения метеостанции


Название, широта, долгота, высота метеостанции:
Радужный 62.1°ш. 77.3°д. 73 м над ур. моря [Российская Федерация]

Дополнительная информация

В oтличие oт бoльшинства пoгoдных сайтoв мы публикуем пoдрoбную метеoинфoрмацию в детальнoм прoфессиoнальнoм фoрмате.

Характеристики температуры и влажнoсти вoздуха измеряются на высoте 2 м в тени вдали oт зданий и деревьев.
Скoрoсть ветра измеряется на высoте 10 м (на урoвне рoста челoвека скoрoсть ветра ниже в 1.5-2 раза). Если метеoстанция нахoдится в гoрoде или в лесу, тo скoрoсть ветра занижена на 2-4 м/с пo сравнению с oткрытым местoм. Скoрoсть ветра над акватoриями крупных рек и oзёр, а также на вершинах хoлмoв на 2-5 м/с выше, чем в oбычных услoвиях.
Атмoсфернoе давление в разных тoчках местнoсти мoжет значительнo oтличаться oт давления на метеoстанции, в зависимoсти oт услoвий рельефа (при пoдъёме на 10 м давление пoнижается примернo на 1 мм рт.ст.).